Location: Asarope
(8.2500°N, 4.4833°E)
Time: 23:24:10
(UTC+00:00)

PAYLOAD A - Pass Details

Date: 07 June 2020
Orbit: 692 x 832 km, 98.3° (Epoch: 10 July)

Event Time Altitude Azimuth Distance (km) Brightness Sun altitude
Rises 03:47:43 0° 359° (N) 3,119 7.5 -22.2°
Reaches altitude 10° 03:50:03 10° 352° (N) 2,219 6.6 -21.7°
Maximum altitude 03:54:36 40° 283° (WNW) 1,084 4.4 -20.7°
Enters shadow 03:55:00 40° 270° (W) 1,100 4.4 -20.6°
